Helicity
426 388 352 328 334 306 243 190 157 125 112 106 91 77 69 60 66 82 87 96 97 103
462 457 431 386 354 297 246 202 165 135 114 98 85 82 84 82 90 106 111 114 114 109
445 425 400 365 337 305 272 223 178 154 130 115 107 105 97 82 93 114 112 111 118 114
447 414 390 372 341 284 257 209 182 155 135 120 106 87 78 96 120 125 119 122 123 114
419 399 375 338 319 275 224 187 164 138 115 97 84 88 96 117 123 118 109 100 99 94
377 358 339 296 248 215 187 164 144 128 117 112 106 106 124 134 120 102 82 75 81 89
340 301 272 245 215 186 162 153 146 138 129 121 121 129 147 124 108 86 84 85 91 94
298 264 232 204 192 180 168 154 141 136 136 145 146 125 124 99 88 90 93 100 90 75
246 223 208 193 183 176 168 153 148 154 153 146 111 95 103 95 91 95 79 69 59 53
248 243 230 212 193 177 169 153 154 146 124 103 84 83 116 109 86 71 63 57 60 66
257 246 218 197 184 166 146 139 122 102 83 88 98 114 105 89 58 56 54 58 66 73
237 213 189 179 162 137 129 113 89 76 92 104 103 90 82 76 56 60 60 55 60 62
214 185 168 153 140 110 84 75 85 92 82 70 65 41 62 84 67 66 63 53 55 51
201 178 150 134 94 79 86 82 84 81 65 43 38 48 77 87 81 78 75 89 98 112
Wind_Speed
10 11 12 15 19 24 29 33 36 37 38 41 43 46 50 51 54 57 60 64 65 66
11 10 13 16 21 24 28 30 34 36 39 42 46 50 53 57 61 64 66 69 70 72
10 13 14 16 20 24 27 31 33 37 41 45 49 54 58 61 63 67 69 71 75 75
12 14 15 19 22 25 28 31 36 40 43 47 52 56 59 63 67 72 73 74 75 77
13 15 17 21 24 26 29 33 38 42 46 50 54 58 62 68 73 76 78 78 78 78
14 16 19 22 25 29 33 37 41 45 50 54 58 62 64 72 76 78 78 77 78 79
16 18 20 22 26 32 37 42 46 50 53 57 61 63 68 75 78 78 77 77 77 78
18 20 23 26 30 35 40 45 49 53 56 61 65 65 72 76 78 80 79 77 76 74
18 21 26 30 36 40 44 49 53 58 62 66 67 69 73 76 78 79 78 79 79 79
20 25 30 35 40 45 49 53 57 60 64 68 70 70 74 76 75 77 77 79 81 83
25 29 33 39 44 49 52 56 60 63 67 71 72 74 76 77 77 78 79 80 82 83
28 32 38 44 49 52 56 60 63 67 71 73 73 74 76 79 80 82 84 83 83 84
32 36 42 48 52 54 58 63 68 70 70 72 74 73 76 80 82 88 88 83 83 87
35 41 46 49 51 56 63 67 70 72 72 72 72 73 77 82 84 86 93 95 96 89
Wind_Direction
312 317 327 334 338 338 339 342 345 346 348 348 347 347 345 345 343 341 338 336 335 333
319 326 332 336 338 340 342 344 345 346 345 345 345 344 343 340 338 338 337 336 335 333
333 337 343 347 344 344 343 344 344 343 342 342 341 341 339 338 338 337 336 335 333 333
345 348 355 346 347 345 345 344 341 340 339 338 338 338 337 337 336 335 334 334 334 332
352 351 351 350 349 345 342 341 339 337 336 336 337 336 336 335 334 333 333 333 332 331
351 348 348 350 346 340 336 335 335 334 333 334 335 335 335 334 333 333 332 332 331 331
344 345 347 347 342 334 332 331 330 332 333 335 335 334 333 332 332 332 331 331 331 331
344 344 342 342 334 331 329 329 330 331 334 334 333 332 331 331 331 330 331 332 332 332
341 338 335 334 328 327 328 328 329 331 332 332 331 330 331 330 330 331 331 331 332 332
334 332 331 327 325 324 326 328 329 330 330 330 330 330 330 330 331 331 332 331 331 332
327 326 325 323 323 325 327 327 327 328 328 329 330 330 330 330 331 331 331 331 331 331
322 322 320 320 322 324 324 325 326 326 327 329 329 330 330 330 330 330 330 331 331 332
319 319 319 320 322 324 324 324 325 327 328 328 328 330 330 331 330 328 329 331 331 332
320 319 321 321 323 324 324 325 325 325 327 328 329 330 331 331 331 330 327 327 328 330